User: anonymous   Login
Location: Caltech
(34.1382°N, 118.1253°W)
Time: 20:37:58
(UTC-08:00)
Language:

Oscar 16 - Orbit

View from above orbital plane
View from above orbital plane
View from above satellite
View from above satellite

Ground track
Ground track

The orbit data is extracted from the following two-line orbital elements,

1 20439U 90005D   14325.83054079  .00000268  00000-0  11481-3 0  1764
2 20439 098.5221 260.2934 0011759 057.8837 003.1099 14.32432637297054
Epoch (UTC): 21 November 2014 19:55:58
Eccentricity: 0.0011759
inclination: 98.5221°
perigee height: 775 km
apogee height: 792 km
right ascension of ascending node: 260.2934°
argument of perigee: 57.8837°
revolutions per day: 14.32432637
mean anomaly at epoch: 3.1099°
orbit number at epoch: 29705

The dashed part of the orbit path shows where the satellite is in the earth's shadow,  

DLR